Regional Weather Roundup
Issued by NWS

Home | Current Version | Previous Version | Text Only | Print | Product List | Glossary Off
Versions: 1 2 3 4 5 6 7 8 9 10 11 12 13 14 15 16 17 18 19 20 21 22 23 24 25 26 27 28 29 30 31 32 33 34 35 36 37 38 39 40 41 42 43 44 45 46 47 48 49 50

000
ASUS43 KMPX 202110
RWRMN
WEATHER ROUNDUP FOR MINNESOTA
NATIONAL WEATHER SERVICE TWIN CITIES/CHANHASSEN MN
400 PM CDT SUN APR 20 2014


NOTE: "FAIR" INDICATES FEW OR NO CLOUDS BELOW 12,000 FEET WITH NO
SIGNIFICANT WEATHER AND/OR OBSTRUCTIONS TO VISIBILITY. N/A MEANS
CURRENT SKY AND/OR WEATHER CONDITIONS ARE NOT AVAILABLE.

MNZ060>063-068>070-202200-
   Twin Cities Metro

CITY           SKY/WX    TMP DP  RH WIND       PRES   REMARKS
TWIN CITIES    MOSUNNY   73  37  27 VRB3      29.96F
ST PAUL        SUNNY     74  36  25 S3        29.97F
CRYSTAL        SUNNY     74  33  22 VRB3      29.95F
BLAINE         SUNNY     75  34  22 CALM      29.97F
EDEN PRAIRIE   SUNNY     76  35  22 CALM      29.95F
LAKEVILLE      SUNNY     70  52  52 SE5       29.98F
SOUTH ST PAUL  MOSUNNY   74  45  34 SE8       29.96F
LAKE ELMO      FAIR      73  37  27 CALM      29.98F
$$
MNZ001>005-007-008-013>017-022>024-027-028-202200-
   Northwest Minnesota

CITY           SKY/WX    TMP DP  RH WIND       PRES   REMARKS
BEMIDJI        SUNNY     69  29  22 SW6       29.96F
HALLOCK          N/A     57  46  67 SE10      29.94F
ROSEAU         SUNNY     57  43  58 CALM      29.97F
WARROAD        SUNNY     54  39  58 E7        29.98F
THIEF RVR FALL MOSUNNY   64  37  36 SW9       29.97S
CROOKSTON      MOSUNNY   68  37  32 SW15      29.95F
FOSSTON        SUNNY     70  34  26 SW8       29.97S
DETROIT LAKES  SUNNY     70  32  24 S9        29.97F
MOORHEAD       SUNNY     72  18  13 S9G17     29.94F
PARK RAPIDS    SUNNY     69  29  22 VRB7      29.96F
$$
MNZ006-009>011-018-025>026-202200-
   North Central Minnesota

CITY           SKY/WX    TMP DP  RH WIND       PRES   REMARKS
BAUDETTE       MOSUNNY   59  37  44 CALM      29.99F
FLAG ISLAND    SUNNY     45  32  61 SE5       29.98F
INTL FALLS     MOSUNNY   60  34  37 NW6       30.00S
WASKISH        SUNNY     63  36  36 W5        29.99F
BIG FORK       MOSUNNY   66  30  26 NW3       29.99F
LONGVILLE      SUNNY     70  28  21 SW3       29.98F
GRAND RAPIDS   SUNNY     66  30  26 NW9       29.99F
CRANE LAKE     MOSUNNY   63  32  31 N7        30.02F
ORR            SUNNY     63  28  27 NW3       29.98S
COOK           SUNNY     64  34  32 W6        30.00F
$$
MNZ012-019>021-037-202200-
   Northeast Minnesota

CITY           SKY/WX    TMP DP  RH WIND       PRES   REMARKS
DULUTH         SUNNY     65  28  24 W8        30.00S
ELY            SUNNY     61  28  29 W7        30.01S
HIBBING        SUNNY     66  29  24 NW7       29.99F
EVELETH        SUNNY     63  30  29 NW6       30.01F
DULUTH HARBOR  SUNNY     45  37  76 CALM      30.01S
TWO HARBORS    SUNNY     63  37  39 S6        29.97F
SILVER BAY     SUNNY     57  41  54 SE5       29.98F
GRAND MARAIS     N/A     46  35  65 W12       30.00F
G MARAIS ARPRT SUNNY     57  25  28 NW8G18    30.01S
$$
MNZ029>031-032-039>041-046>048-054>057-064-202200-
   West Central Minnesota

CITY           SKY/WX    TMP DP  RH WIND       PRES   REMARKS
FERGUS FALLS   SUNNY     72  25  17 SW8       29.91F
WHEATON        SUNNY     75  37  25 SE5       29.95F
MORRIS         SUNNY     73  34  23 SE8       29.94F
ALEXANDRIA     SUNNY     70  34  26 S10       29.98F
ELBOW LAKE     FAIR      72  33  23 SE7       29.95F
WADENA         SUNNY     70  34  26 S8        29.96F
GLENWOOD       SUNNY     73  32  21 SE3G9     29.98F
APPLETON       SUNNY     75  28  17 SE9       29.95F
BENSON         SUNNY     73  36  25 E3        29.96F
ORTONVILLE     SUNNY     73  30  20 SE8       29.94F
MADISON        SUNNY     75  32  20 E12       29.95F
WILLMAR        FAIR      73  34  23 SE9       29.98F
$$
MNZ033>034-036-042>043-049>051-058-059-202200-
   Central Minnesota

CITY           SKY/WX    TMP DP  RH WIND       PRES   REMARKS
ST CLOUD       SUNNY     72  32  23 SW5       29.97F
SAUK CENTRE    FAIR      70  34  26 CALM      29.98F
PAYNESVILLE    SUNNY     71  34  25 CALM      29.98F
AITKIN         SUNNY     72  19  14 N5        29.97F
PINE RIVER     SUNNY     70  37  30 SW5       30.00F
BRAINERD       SUNNY     74  25  16 CALM      29.97F
STAPLES        SUNNY     72  23  16 W5        29.97F
LONG PRAIRIE   FAIR      70  36  28 CALM      29.98F
LITTLE FALLS   SUNNY     70  27  19 CALM      29.98F
LITCHFIELD     SUNNY     73  34  23 SE5       29.98F
BUFFALO        SUNNY     73  34  24 CALM      29.98F
MAPLE LAKE     SUNNY     73  36  26 CALM      29.99S
$$
MNZ037-044-045-052-053-202200-
   East Central Minnesota

CITY           SKY/WX    TMP DP  RH WIND       PRES   REMARKS
PRINCETON      SUNNY     73  34  23 E3        29.98F
MORA           SUNNY     68  34  28 CALM      30.00F
CAMBRIDGE      SUNNY     72  46  40 W3        29.97F
RUSH CITY      SUNNY     67  35  30 CALM      30.00S
MOOSE LAKE     SUNNY     70  32  24 W3        29.97F
HINCKLEY       FAIR      68  36  30 SW5       29.99F
CLOQUET        SUNNY     66  23  19 CALM      29.99F
MCGREGOR       SUNNY     70  32  24 N6        29.99F
$$
MNZ071>073-080-081-089-090-097-098-202200-
   Southwest Minnesota

CITY           SKY/WX    TMP DP  RH WIND       PRES   REMARKS
MONTEVIDEO     SUNNY     75  36  23 S9G16     29.96F
GRANITE FALLS  SUNNY     74  34  23 NE7       29.96F
CANBY          SUNNY     74  35  23 E12       29.95F
MARSHALL       SUNNY     73  36  25 SE12      29.94F
REDWOOD FALLS  SUNNY     75  31  19 E5        29.94F
OLIVIA         SUNNY     73  39  29 E5        29.96F
PIPESTONE      SUNNY     75  37  25 SE9       29.93F
WINDOM         SUNNY     75  46  35 E6        29.94F
WORTHINGTON    MOSUNNY   75  46  35 E6        29.95F
JACKSON        MOSUNNY   77  45  31 SE7       29.95F
TRACY          SUNNY     76  34  21 CALM      29.95F
SLAYTON        SUNNY     75  37  25 E5        29.95F
$$
MNZ065>067-074>077-082>085-091>093-202200-
   South Central Minnesota

CITY           SKY/WX    TMP DP  RH WIND       PRES   REMARKS
MANKATO        SUNNY     72  52  49 SE5       29.96F
NEW ULM        SUNNY     73  50  43 E6        29.95F
ST JAMES       SUNNY     75  48  38 E8        29.95F
FAIRMONT       PTSUNNY   73  52  46 SE9       29.96F
GLENCOE        SUNNY     75  31  19 E3        29.96S
FARIBAULT      SUNNY     72  48  43 CALM      29.99F
OWATONNA       SUNNY     70  54  56 SW5       29.99F
WASECA         PTSUNNY   72  55  56 SE5       29.99F
ALBERT LEA     MOSUNNY   70  55  60 SW6       29.98F
$$
MNZ078>079-086>088-094>096-202200-
   Southeast Minnesota

CITY           SKY/WX    TMP DP  RH WIND       PRES   REMARKS
ROCHESTER      CLOUDY    64  57  78 SW10      30.01F
RED WING       CLOUDY    70  54  56 SE7       29.98F
STANTON        MOSUNNY   71  52  51 S6        29.97F
DODGE CENTER   PTSUNNY   66  57  72 S6        30.01F
WINONA           N/A    N/A N/A N/A MISG        N/A
AUSTIN         MOSUNNY   68  57  68 S3        29.99F
PRESTON        MOSUNNY   64  56  76 S9        30.02F
$$
ABBREVIATIONS USED IN REMARKS
   TC - TEMPERATURES IN CELSIUS
  WCI - WIND CHILL INDEX
   HX - HEAT INDEX
  VSB - VISIBILITY
$$



USA.gov is the U.S. government's official web portal to all federal, state and local government web resources and services.